Theta_e
318 323 323 323 327 325 327 325 328 330 331 333 336 335 338 339 341 344 343 336 336 338 348 323 317 316 316 315 315 315 324 337 342 343 343 341 342 341 338 329 320 317 318 317 314 313 315 318 318
320 323 322 325 325 327 325 327 327 333 336 338 339 339 341 341 340 341 342 337 337 341 346 334 317 316 316 315 314 314 321 330 337 338 338 338 338 336 327 319 316 316 317 322 323 322 321 320 321
331 325 322 323 326 325 327 327 329 332 335 337 339 339 339 340 340 339 338 338 338 343 346 342 319 317 316 315 314 314 315 322 329 333 333 332 328 322 318 316 313 314 327 330 331 326 322 328 329
328 323 322 325 325 326 326 329 330 334 335 337 339 338 338 339 340 339 338 337 339 341 344 342 329 317 316 315 314 314 314 315 318 321 323 320 317 316 314 312 312 314 330 334 333 331 331 331 331
325 325 323 323 324 326 326 327 333 334 337 338 338 339 338 337 338 339 338 336 338 340 342 343 337 317 316 316 314 314 314 314 314 314 315 315 314 313 313 312 313 316 331 334 333 334 330 329 334
327 323 324 325 324 325 326 327 327 331 336 336 337 338 339 337 338 338 335 336 337 339 342 347 340 325 317 316 314 313 314 314 314 313 313 313 312 312 314 314 314 317 327 333 334 333 331 331 334
329 326 324 323 324 326 326 326 326 328 332 335 334 336 338 338 338 336 334 335 336 339 342 350 350 338 320 318 315 313 313 314 314 314 313 313 313 313 314 314 315 318 323 331 333 333 333 333 333
329 329 329 326 323 322 324 325 325 325 328 331 334 337 338 338 337 336 336 337 336 339 341 342 352 346 339 337 318 315 313 313 314 314 314 314 314 315 315 315 316 318 323 330 332 335 335 334 333
329 331 331 329 327 326 325 324 325 328 328 329 333 336 336 338 340 338 337 337 337 338 341 343 344 347 343 340 339 321 316 314 314 317 316 319 331 332 331 326 327 319 322 328 332 333 336 335 336
330 332 331 329 328 326 325 324 325 325 327 330 335 335 333 336 337 339 338 338 337 338 340 343 344 345 346 341 340 343 340 338 336 334 334 334 331 330 332 331 326 329 323 328 329 333 336 338 338
329 332 330 329 328 328 327 324 325 325 327 330 333 335 334 334 337 340 338 337 337 337 338 341 348 348 347 345 341 342 345 341 340 338 335 335 332 331 333 333 333 332 332 333 334 337 338 338 338
327 327 329 330 329 329 328 324 324 325 327 327 331 335 334 333 335 338 339 338 338 339 339 338 343 351 350 346 345 344 344 345 343 342 340 336 337 334 334 334 334 334 334 334 335 336 338 339 340
322 325 326 327 329 329 329 328 326 326 326 327 327 331 333 333 333 334 334 334 335 335 335 335 336 348 351 351 346 345 344 344 344 344 344 341 339 337 335 336 334 335 335 335 335 336 338 340 339
319 321 322 323 326 327 329 329 329 329 327 327 327 326 329 331 331 333 333 333 334 333 334 334 335 339 352 351 347 348 347 343 344 344 345 344 342 340 337 337 337 334 335 334 335 335 336 339 338
318 319 319 321 323 324 327 329 330 329 329 330 329 329 330 332 333 334 332 332 332 333 334 333 335 337 345 351 351 349 344 343 344 343 344 346 344 342 341 339 338 336 334 334 335 335 336 338 338
317 319 320 320 321 322 323 327 328 328 330 331 331 331 331 332 333 331 331 331 331 333 334 335 334 333 339 342 344 341 340 342 342 343 343 346 347 344 343 340 339 338 336 334 335 334 334 338 337
313 318 320 319 320 321 321 325 325 326 329 330 331 332 332 332 333 332 331 331 332 332 334 335 335 335 334 336 338 338 339 340 341 343 344 345 346 346 345 341 340 339 337 335 335 334 335 336 335
313 314 315 318 319 320 320 323 323 324 326 329 330 330 331 331 332 331 330 330 331 332 333 335 335 335 337 336 337 337 338 340 343 344 344 345 347 346 345 343 342 340 337 335 335 335 334 333 333
314 313 314 316 318 319 319 321 322 323 324 325 327 329 332 332 330 329 329 329 329 330 332 333 334 336 336 333 335 334 337 340 344 345 345 345 347 346 344 344 343 341 338 338 337 336 335 333 338
312 312 314 314 315 318 321 321 321 322 324 325 325 327 328 329 329 330 329 328 330 330 332 333 335 337 339 336 336 333 336 339 343 345 346 347 347 346 345 345 344 342 341 339 337 336 335 336 339
312 313 312 313 315 317 319 320 321 322 322 323 324 325 326 328 328 329 329 331 328 330 331 332 334 337 340 337 337 339 341 344 344 347 348 347 346 345 344 344 345 343 342 339 338 337 338 340 338
312 312 312 312 312 314 316 321 321 322 323 324 324 325 326 326 327 328 330 332 330 329 327 329 332 335 339 342 336 338 343 344 347 347 346 345 345 345 344 343 344 343 342 340 338 340 341 339 336
313 312 312 312 312 313 314 317 319 320 323 323 323 324 324 325 325 325 326 327 325 325 327 328 330 336 337 339 337 337 344 344 345 345 349 345 344 342 344 344 343 344 341 341 341 341 340 338 338
312 313 313 312 312 313 313 316 318 320 321 322 323 323 324 324 324 325 325 323 323 323 324 325 329 335 336 337 343 345 346 348 347 349 345 344 344 344 345 344 343 343 342 341 341 339 339 338 337
314 315 315 312 314 313 313 314 317 318 320 321 321 322 323 323 323 323 324 324 325 325 324 325 328 331 334 340 344 346 349 351 352 348 346 345 346 346 344 344 342 342 341 341 339 339 339 338 335
317 315 313 312 312 312 316 316 315 318 320 321 320 320 321 322 323 324 325 325 327 326 325 328 333 339 343 345 347 349 350 350 351 348 349 347 347 346 345 344 342 340 339 340 339 339 337 335 333
315 317 314 311 312 313 316 316 317 316 318 319 320 321 321 325 327 329 331 331 332 327 327 332 338 343 346 347 348 350 350 350 349 351 349 347 346 345 344 342 341 339 339 338 338 336 335 334 334
315 314 320 313 314 313 314 316 317 316 316 319 320 322 323 324 327 332 333 333 336 332 335 341 344 347 348 349 350 350 351 351 350 348 346 343 342 340 340 338 339 339 338 337 336 334 334 334 334
315 314 316 316 317 315 316 319 318 318 317 319 320 322 323 328 336 339 341 343 341 340 341 344 346 348 348 349 350 349 348 348 346 343 341 342 340 339 338 338 338 336 334 334 335 335 336 334 335
313 313 313 320 318 315 315 319 318 320 322 319 322 321 322 323 338 341 340 343 344 344 346 346 347 347 348 348 347 347 346 343 342 341 340 340 338 337 336 335 333 333 333 334 334 334 334 333 334
Wind_Speed
11 6 8 9 8 8 17 19 12 13 13 5 4 8 10 16 6 1 15 18 23 25 23 28 27 25 24 23 23 22 23 23 22 21 20 19 17 15 14 13 12 11 10 9 9 8 7 5 4
11 10 10 7 9 14 13 18 10 10 9 7 7 9 9 11 7 14 16 16 23 25 24 28 29 27 26 25 24 24 24 23 23 22 21 19 18 16 14 13 11 11 11 11 10 9 8 6 5
8 11 9 9 15 17 15 19 10 16 5 8 9 7 7 7 1 4 23 20 22 22 22 26 32 29 27 26 26 25 25 24 23 22 21 20 18 17 15 13 12 12 11 11 11 10 8 7 5
10 10 8 13 19 22 24 4 9 7 9 8 5 7 3 5 3 9 23 23 23 21 22 23 30 31 29 28 27 26 25 24 24 23 22 21 19 18 17 15 14 13 12 11 10 9 7 6 5
14 9 13 17 22 24 16 9 6 6 7 12 12 10 9 9 6 16 25 23 21 21 20 22 27 32 31 29 28 27 26 25 25 24 23 22 20 19 18 17 16 15 14 13 12 11 9 8 7
7 7 14 17 23 21 20 12 10 14 14 10 12 12 12 16 14 19 25 23 21 21 20 20 24 32 31 30 29 29 28 27 27 25 24 23 21 21 20 19 18 17 16 15 14 12 10 9 8
15 12 16 20 24 18 16 14 14 17 18 18 14 15 14 11 17 21 24 21 20 19 18 17 17 28 33 29 29 29 30 29 29 28 27 25 24 23 21 21 19 18 18 17 16 14 12 10 10
14 14 24 21 18 22 20 17 16 19 18 15 10 11 17 14 20 23 22 20 19 18 17 17 15 21 25 25 30 30 28 28 29 29 28 27 25 24 23 23 22 20 19 19 18 16 14 13 11
18 16 19 24 22 17 12 16 17 16 19 19 10 17 7 10 15 20 21 21 19 19 17 16 16 18 21 22 23 32 31 30 30 30 30 28 22 23 23 24 22 23 22 20 19 18 17 15 14
21 18 29 22 20 13 14 16 20 18 16 19 14 5 2 8 15 18 19 18 20 19 17 15 15 17 18 20 20 21 22 24 25 25 26 27 25 23 22 23 25 24 23 22 21 20 17 14 13
25 28 26 24 23 20 16 19 18 22 19 18 19 17 12 3 8 18 21 21 21 18 18 16 15 15 18 18 19 19 18 23 24 27 28 27 26 25 25 23 24 23 24 20 21 19 17 16 13
28 32 29 28 27 23 17 18 23 25 22 18 19 17 19 9 7 12 15 20 18 8 9 10 13 17 19 18 19 19 19 19 22 24 30 29 27 26 27 27 24 25 23 25 22 19 19 18 17
32 29 28 28 25 25 26 21 24 26 25 23 21 16 12 14 11 12 12 13 11 12 10 10 12 17 19 22 18 19 20 20 21 22 26 31 29 28 28 26 25 23 22 24 23 22 21 21 18
26 27 32 31 29 28 28 29 22 29 23 25 23 24 19 20 19 19 19 17 17 17 15 14 14 13 17 19 22 20 19 20 21 23 25 32 30 27 28 28 25 25 23 23 23 22 21 19 18
25 27 28 29 26 32 29 29 31 29 27 25 25 24 22 24 24 21 19 18 19 20 19 16 15 13 21 21 19 18 18 20 21 24 24 25 33 28 27 26 26 26 25 22 19 20 19 19 18
23 21 25 34 27 30 23 34 38 29 28 28 29 26 25 25 24 27 24 23 22 22 21 18 17 18 23 19 17 18 20 21 22 22 22 26 27 31 27 27 26 25 24 23 22 22 21 18 19
21 25 28 29 29 29 28 35 32 32 30 29 28 28 25 27 26 25 25 25 17 17 17 19 17 17 18 17 17 20 22 22 22 21 22 23 27 26 28 27 25 24 24 23 22 22 19 19 19
21 26 29 30 29 26 31 35 33 28 27 30 29 27 24 26 26 24 26 22 21 22 19 18 20 22 19 19 18 19 20 21 21 22 22 21 23 25 28 24 23 23 24 23 23 21 20 20 19
22 25 31 30 25 25 30 31 32 30 29 28 26 22 29 29 23 27 20 17 18 19 21 19 22 23 22 22 20 21 21 21 20 21 20 21 21 23 26 24 22 22 23 23 20 18 19 20 14
22 25 28 27 28 26 24 27 30 29 27 28 28 28 27 22 21 21 24 24 21 23 21 22 24 25 23 21 21 23 18 19 20 19 19 20 21 23 25 24 21 22 21 20 19 21 19 18 12
20 22 24 26 24 26 28 29 31 30 29 27 27 27 27 26 25 21 19 23 24 23 23 24 26 25 24 24 20 15 15 13 16 17 17 19 21 22 24 23 18 21 19 20 20 20 20 13 11
22 20 21 22 20 22 25 24 29 26 29 27 27 24 22 22 22 22 22 22 25 26 28 27 26 24 24 22 20 20 17 15 16 15 19 20 21 19 21 21 18 20 19 18 20 18 17 12 11
22 19 23 23 22 24 29 21 25 26 26 26 26 27 29 29 28 27 25 22 29 30 27 25 25 24 25 22 24 22 20 17 15 18 16 19 19 21 20 22 19 18 19 17 18 17 13 9 8
21 21 25 23 20 21 28 26 25 24 25 23 18 20 19 22 22 22 20 28 24 23 25 21 20 23 23 24 23 21 20 18 18 18 18 19 19 20 22 21 19 17 16 16 14 12 10 11 11
24 21 15 17 17 20 23 27 22 24 27 28 16 17 23 12 15 18 20 16 18 19 22 18 17 18 21 22 21 22 20 16 19 21 21 21 20 21 22 20 19 17 13 11 12 11 10 10 11
16 21 14 17 16 19 15 23 25 25 26 10 10 20 12 13 14 14 15 13 12 16 19 17 17 16 18 20 21 21 21 20 20 23 24 21 19 20 22 19 17 14 13 11 10 10 10 11 10
19 15 20 18 24 16 15 25 27 30 23 21 18 15 13 5 9 12 15 14 12 14 15 15 15 17 19 20 21 21 22 21 22 20 23 24 22 22 18 17 15 14 11 11 10 11 12 9 9
15 12 9 13 21 22 20 18 18 30 29 21 17 4 2 8 12 7 10 7 6 12 13 15 17 18 20 22 22 23 22 20 22 21 16 17 18 17 17 14 13 11 11 12 11 12 11 10 11
11 15 7 9 14 13 15 12 15 16 30 22 8 5 4 7 6 7 7 4 7 7 15 17 19 21 22 23 23 22 22 23 22 20 19 17 17 16 15 14 12 10 10 10 10 6 8 12 12
17 15 11 5 9 18 15 17 21 31 28 27 11 2 8 11 8 1 2 6 12 17 18 21 22 23 24 23 23 23 24 23 22 20 18 16 15 14 12 12 12 12 11 8 8 9 9 10 12
Wind_Direction
220 246 252 237 238 232 244 234 242 217 213 208 335 228 247 257 189 101 145 140 149 156 168 179 182 183 187 186 187 186 188 188 189 190 190 190 195 197 196 197 194 190 188 187 183 181 174 167 161
213 230 236 266 242 241 231 241 199 237 197 139 215 220 238 227 91 112 144 146 150 158 169 177 185 186 189 192 192 192 192 192 194 195 195 196 198 202 204 204 200 198 190 185 180 178 173 169 162
226 220 254 225 235 246 254 202 185 212 80 228 196 228 228 168 17 66 143 149 152 162 172 180 186 187 190 194 196 197 198 196 198 200 199 200 203 208 210 207 204 201 192 189 186 180 180 177 175
202 212 251 260 248 230 259 14 190 161 202 217 242 179 281 39 11 135 146 155 157 167 175 190 193 189 193 196 199 201 203 201 202 204 207 207 207 210 211 206 204 202 196 196 197 192 195 195 199
245 261 238 242 242 263 239 259 255 236 227 187 186 212 204 184 217 157 155 163 167 172 176 191 203 194 194 198 201 204 206 206 208 208 211 212 209 209 211 208 205 202 199 199 201 204 208 211 218
226 250 252 243 247 235 254 247 242 242 249 235 217 226 213 179 186 162 165 170 174 173 175 183 203 204 199 201 204 207 209 210 212 213 212 214 212 212 210 212 210 206 205 206 207 209 218 222 230
236 224 245 268 279 271 233 239 241 238 243 228 224 233 245 152 198 181 175 173 174 169 175 171 186 202 205 208 213 213 212 212 215 217 216 215 215 214 214 216 214 212 210 211 212 215 221 228 237
235 251 261 249 246 261 285 283 249 256 268 277 303 234 225 188 168 179 177 176 181 173 177 185 184 193 197 206 215 221 223 221 221 220 222 221 218 218 219 219 219 218 217 215 216 217 221 227 234
230 247 251 250 255 246 248 265 255 241 236 238 224 247 17 90 157 187 192 180 189 182 184 191 195 196 197 205 215 220 223 227 228 228 228 225 217 218 216 218 217 220 219 219 219 220 224 225 232
224 237 241 250 258 280 261 259 264 240 230 248 215 217 205 189 187 197 199 194 194 189 190 195 204 203 202 206 209 211 217 221 222 221 219 219 220 221 220 221 219 226 225 222 222 223 224 231 239
240 240 249 249 248 257 263 256 261 265 247 225 232 200 203 165 212 207 201 213 201 205 199 201 197 207 207 212 209 214 217 221 221 221 219 220 220 221 220 219 218 219 226 221 225 224 223 224 233
232 241 250 259 270 274 246 260 268 269 258 254 246 220 187 173 224 222 240 217 218 193 207 229 209 205 212 213 212 216 220 218 219 223 218 217 217 220 218 215 215 210 216 217 219 220 221 225 229
243 247 249 252 256 261 268 238 254 255 260 265 262 261 211 214 233 243 263 272 264 242 224 226 223 206 212 213 217 219 222 224 228 226 220 212 218 218 216 220 217 212 215 214 221 223 219 221 227
257 252 253 254 252 249 249 256 253 251 253 258 253 255 247 236 237 234 222 235 254 257 247 243 233 213 210 213 218 224 231 237 237 233 224 211 213 220 218 216 219 223 217 221 216 222 227 227 233
261 263 265 261 245 248 255 253 244 253 253 248 243 247 252 257 248 245 243 235 238 245 250 250 244 230 211 217 223 234 244 242 241 236 227 215 209 218 217 218 218 220 224 224 220 224 223 232 230
278 265 252 243 247 249 245 253 249 245 250 248 248 245 243 239 238 244 249 246 249 250 249 250 244 235 214 220 228 244 251 244 244 238 231 217 212 211 217 219 218 220 220 220 223 221 225 220 232
246 251 248 257 244 239 235 249 249 252 252 246 241 247 243 243 239 236 242 250 248 252 246 244 248 238 246 234 244 251 248 246 241 234 229 218 212 212 214 216 221 216 218 217 217 223 219 226 233
255 245 248 254 257 246 231 237 245 249 251 248 254 258 254 243 246 246 235 229 223 230 244 244 246 248 241 251 254 253 248 241 237 230 224 211 208 210 207 213 216 212 216 215 214 214 217 230 240
280 274 276 277 274 244 251 257 247 241 237 249 255 251 230 245 250 250 254 255 252 248 236 241 244 246 252 247 246 245 241 235 231 227 218 209 204 205 199 209 207 210 211 215 205 209 220 229 234
279 278 272 275 270 278 272 266 264 260 246 247 245 246 252 249 243 248 250 248 244 247 241 236 240 243 241 237 238 242 250 239 226 220 207 204 200 201 198 203 201 199 208 205 201 207 215 222 223
271 266 274 280 286 273 266 256 263 264 257 256 253 251 253 253 253 252 257 257 252 249 243 236 234 237 236 232 233 231 238 250 216 206 195 199 198 198 195 202 199 192 205 199 203 205 217 202 208
271 269 273 276 269 259 254 261 249 246 249 251 251 247 249 254 259 254 250 252 248 249 251 246 238 231 228 215 222 220 217 212 213 207 205 191 192 185 186 196 195 188 198 191 195 203 207 225 213
275 277 274 267 263 267 254 259 254 245 245 241 241 242 242 242 243 247 249 252 253 249 243 234 232 222 220 211 213 220 220 210 198 201 165 167 171 184 185 188 192 188 197 176 188 194 198 203 225
288 282 271 262 258 253 252 248 252 246 248 259 257 258 256 248 246 245 253 251 249 249 244 232 224 222 215 215 212 220 200 212 179 173 168 170 172 178 184 181 182 183 196 174 190 192 200 217 231
256 258 261 253 244 252 250 251 246 256 243 249 263 263 242 260 261 249 239 239 239 234 232 216 214 217 215 206 201 198 196 193 165 157 168 165 169 172 175 174 178 180 195 175 189 195 208 217 223
283 250 244 261 260 257 317 258 246 248 254 254 267 281 273 256 253 253 246 245 249 237 207 210 200 202 194 191 189 184 180 177 171 180 158 167 169 168 171 176 177 183 193 190 197 202 212 208 209
276 251 253 268 281 270 273 272 277 240 249 250 252 243 219 272 295 273 258 250 239 230 203 197 201 186 180 177 174 171 172 169 170 159 152 160 164 153 165 174 181 194 191 194 199 219 201 194 195
251 281 258 239 260 263 267 263 258 204 231 217 229 167 274 266 262 274 259 237 238 211 170 190 172 166 166 160 160 160 159 153 138 146 157 146 134 153 166 176 185 187 194 204 201 208 193 197 198
249 246 189 262 231 271 269 277 350 236 203 217 200 102 318 306 17 295 338 331 252 174 181 169 162 158 155 155 152 139 134 138 144 143 142 140 147 155 168 176 183 193 195 197 200 223 209 215 203
262 266 313 233 286 264 275 284 306 298 185 199 110 76 332 329 79 150 206 209 197 187 153 159 154 154 153 141 138 138 140 141 140 141 143 147 154 164 168 174 180 186 194 186 207 220 230 221 189